Content
SEND FEEDBACK

Daily
Averages
Monthly
Summary
United States of America

PUT IN BAY, OHIO


Home > North America > United States > Ohio
Elevation: 561 feet     Latitude: 41 39N     Longitude: 082 48W

WEATHER
 
SELECT A DAY
Number of Records: 123,151;   Date Range: 12/10/00 - 9/21/14
 
SHARE

PRINT THIS DATA

[ ← Previous Day ]
WEATHER ALMANAC - MAY 3, 2013
[ Next Day → ]
[ °C ]   °F
Weather ElementAverageHighLow
Temperature62.6 °F72 °F (4:00 pm)54.5 °F (4:00 am)
Dewpoint43.2 °F49.1 °F (2:00 pm)36.3 °F (5:00 pm)
Humidity48.7 %63 % (4:00 am)27 % (5:00 pm)
Barometer30.10 in30.13 in (8:00 am)30.05 in (7:00 pm)
Wind Speed5.9 mph9.2 mph (7:00 am)
Weather ElementAverage
Wind DirectionESE (120.7 °)

Weather ElementTotal
Precipitation---
Heating Degree Days1.8 (Base 65)
Growing Degree Days13.3 (Base 50)
Averaged from 27 records on May 3, 2013
WEATHER CONDITIONS BREAKOUT
WIND DIRECTION BREAKOUT
WEATHER BY HOUR - MAY 3, 2013
[ °C ]   °F
Local TimeTemperatureDewpointHumidityBarometerVisibilityWind DirectionWind SpeedGust SpeedPrecipitationEventsConditions
1:00 AM54.7 °F41.5 °F61 %30.12 inSE (130°)3.5 mph
2:00 AM55.0 °F41.0 °F48 %30.12 inESE (120°)3.5 mph
2:00 AM55.0 °F40.8 °F59 %30.12 inESE (120°)3.5 mph
3:00 AM56.8 °F40.8 °F55 %30.10 inSE (130°)6.9 mph
4:00 AM54.5 °F42.1 °F63 %30.10 inSE (130°)4.6 mph
5:00 AM55.2 °F42.1 °F61 %30.10 inSE (130°)4.6 mph
6:00 AM58.1 °F40.8 °F53 %30.12 inSE (140°)5.8 mph
7:00 AM57.7 °F41.9 °F56 %30.12 inSSE (150°)9.2 mph
8:00 AM60.0 °F44.0 °F44 %30.13 inSSE (150°)6.9 mph
8:00 AM59.5 °F43.7 °F56 %30.13 inSSE (150°)6.9 mph
9:00 AM61.3 °F44.6 °F54 %30.13 inSE (140°)6.9 mph
10:00 AM63.1 °F48.0 °F58 %30.12 inSE (140°)8.1 mph
11:00 AM62.2 °F48.9 °F62 %30.13 inSE (130°)5.8 mph
12:00 PM65.3 °F48.2 °F54 %30.13 inSE (130°)8.1 mph
1:00 PM66.2 °F48.4 °F53 %30.12 inSE (130°)9.2 mph
2:00 PM69.0 °F49.0 °F38 %30.11 inESE (120°)8.1 mph
2:00 PM68.9 °F49.1 °F49 %30.11 inESE (120°)8.1 mph
3:00 PM71.2 °F45.9 °F40 %30.10 inESE (110°)6.9 mph
4:00 PM72.0 °F41.2 °F33 %30.07 inEast (100°)5.8 mph
5:00 PM72.0 °F36.3 °F27 %30.06 inEast (100°)8.1 mph
6:00 PM71.4 °F37.2 °F29 %30.06 inEast (100°)4.6 mph
7:00 PM69.8 °F39.9 °F34 %30.05 inEast (100°)4.6 mph
8:00 PM66.0 °F42.0 °F29 %30.06 inEast (100°)3.5 mph
8:00 PM66.2 °F41.5 °F41 %30.06 inEast (100°)3.5 mph
9:00 PM60.6 °F41.5 °F49 %30.07 inEast (80°)3.5 mph
10:00 PM57.4 °F41.4 °F55 %30.07 inEast (80°)4.6 mph
11:00 PM60.1 °F43.5 °F54 %30.07 inSE (130°)5.8 mph
Hourly data recorded from CXHA, located miles away from Put In Bay, Ohio







STORIES FROM OUR PARTNERS